Location: Groß Eilstorf
(52.8200°N, 9.4552°E)
Time: 15:08:33
(UTC+00:00)

Geosat - Pass Details

Date: 15 May 2026
Orbit: 758 x 760 km, 108.0° (Epoch: 9 June)

Event Time Altitude Azimuth Distance (km) Brightness Sun altitude
Rises 22:24:34 0° 31° (NNE) 3,232 8.0 -17.2°
Reaches altitude 10° 22:26:51 10° 31° (NNE) 2,302 7.1 -17.3°
Maximum altitude 22:31:53 83° 304° (WNW) 773 4.0 -17.4°
Enters shadow 22:35:39 18° 218° (SW) 1,806 5.5 -17.5°
